Weather History for KSHN - October, 2012

Change the Weather History Date:

Friday, October 5, 2012

  Actual Average Record
Temperature  
Mean Temperature 50 °F -  
Max Temperature 72 °F 65 °F 87 °F (1980)
Min Temperature 28 °F 42 °F 28 °F (2012)
Degree Days  
Heating Degree Days 16    
Moisture  
Dew Point 29 °F    
Average Humidity 51    
Maximum Humidity 96    
Minimum Humidity 15    
Precipitation  
Precipitation 0.00 in - - ()
Sea Level Pressure  
Sea Level Pressure 30.23 in    
Wind  
Wind Speed 3 mph (NNE)    
Max Wind Speed 13 mph    
Max Gust Speed 21 mph    
Visibility 9 miles    
Events      
Averages and records for this station are not official NWS values.
T = Trace of Precipitation, MM = Missing Value Source: NWS Daily Summary

Daily Weather History Graph

Daily Weather History Graph

Search for Another Location

Airport or City:

Trip Planner

Search our weather history database for the weather conditions in past years. The results will help you decide how hot, cold, wet, or windy it might be!

Date:

Astronomy

Oct. 05, 2012 Rise Set
Actual Time 7:17 AM PDT 6:42 PM PDT
Civil Twilight 6:47 AM PDT 7:13 PM PDT
Nautical Twilight 6:11 AM PDT 7:48 PM PDT
Astronomical Twilight 5:35 AM PDT 8:24 PM PDT
Moon 9:52 PM PDT 12:49 PM PDT
Length of Visible Light 12h 26m
Length of Day
11h 25m
Waning Gibbous, 73% of the Moon is Illuminated
Oct 5
Waning Gibbous
Oct 8
Last Quarter
Oct 15
New
Oct 21
First Quarter
Oct 29
Full

Hourly Weather History & Observations

Time (PDT) Temp. Windchill Dew Point Humidity Pressure Visibility Wind Dir Wind Speed Gust Speed Precip Events Conditions
12:53 AM 37.4 °F - 30.2 °F 75% 30.24 in 10.0 mi Calm Calm - N/A   Clear
1:53 AM 34.0 °F - 28.9 °F 82% 30.25 in 10.0 mi Calm Calm - N/A   Clear
2:53 AM 30.9 °F 27.5 °F 28.9 °F 92% 30.25 in 10.0 mi NNW 3.5 mph - N/A   Clear
3:53 AM 32.0 °F 28.7 °F 30.0 °F 92% 30.24 in 10.0 mi SSW 3.5 mph - N/A   Clear
4:53 AM 32.0 °F - 28.0 °F 85% 30.25 in 10.0 mi Calm Calm - N/A   Clear
5:53 AM 36.0 °F 33.3 °F 30.9 °F 82% 30.25 in 10.0 mi North 3.5 mph - N/A   Clear
6:53 AM 28.9 °F - 27.0 °F 92% 30.26 in 10.0 mi Calm Calm - N/A   Clear
7:53 AM 30.0 °F - 28.9 °F 96% 30.27 in 10.0 mi Calm Calm - N/A   Clear
8:53 AM 44.1 °F - 39.0 °F 82% 30.27 in 10.0 mi Calm Calm - N/A   Clear
9:53 AM 54.0 °F - 37.0 °F 53% 30.27 in 10.0 mi Calm Calm - N/A   Clear
10:53 AM 60.1 °F - 35.1 °F 39% 30.26 in 2.5 mi NE 4.6 mph - N/A   Haze
11:08 AM 62.6 °F - 35.6 °F 37% 30.24 in 1.5 mi ENE 5.8 mph - N/A   Haze
11:31 AM 66.2 °F - 26.6 °F 23% 30.24 in 3.0 mi NE 9.2 mph 18.4 mph N/A   Haze
11:53 AM 66.9 °F - 25.0 °F 21% 30.24 in 10.0 mi ENE 9.2 mph 17.3 mph N/A   Clear
12:53 PM 69.1 °F - 21.9 °F 17% 30.23 in 10.0 mi East 12.7 mph 20.7 mph N/A   Partly Cloudy
1:53 PM 71.1 °F - 21.9 °F 16% 30.22 in 10.0 mi ENE 9.2 mph - N/A   Clear
2:53 PM 71.1 °F - 21.0 °F 15% 30.20 in 10.0 mi NE 9.2 mph 17.3 mph N/A   Clear
3:53 PM 71.1 °F - 21.0 °F 15% 30.19 in 10.0 mi NNE 10.4 mph - N/A   Clear
4:53 PM 70.0 °F - 21.9 °F 16% 30.19 in 10.0 mi North 11.5 mph 18.4 mph N/A   Clear
5:53 PM 66.9 °F - 25.0 °F 21% 30.18 in 10.0 mi Variable 6.9 mph - N/A   Clear
6:53 PM 60.1 °F - 32.0 °F 35% 30.19 in 10.0 mi North 3.5 mph - N/A   Clear
7:53 PM 57.0 °F - 28.0 °F 33% 30.19 in 10.0 mi North 5.8 mph - N/A   Clear
8:53 PM 57.0 °F - 27.0 °F 32% 30.19 in 10.0 mi NNE 4.6 mph - N/A   Clear
9:53 PM 46.9 °F - 28.0 °F 48% 30.20 in 10.0 mi Calm Calm - N/A   Clear
10:53 PM 43.0 °F - 30.9 °F 62% 30.20 in 10.0 mi Calm Calm - N/A   Clear
11:53 PM 46.0 °F 43.9 °F 32.0 °F 58% 30.20 in 10.0 mi NNE 4.6 mph - N/A   Clear